Showing default

OTB, 44341

Orbit data source: Space-Track

OTB, 44341 is a payload satellite owned by GA-EMS (US) in LEO that was launched on Tue, 25 Jun 2019 UTC via an FALCON HEAVY launch vehicle from the Air Force Eastern Test Range (AFETR). Payloads include a variety of satellites, spacecraft, and rockets equipped with specific instruments for various scientific and technological missions. These include communications satellites like Starlink; space stations such as the ISS; scientific satellites like the Hubble; Earth observation satellites from companies like Planet Labs, Umbra, and HawkEye 360; GPS; miniature CubeSats for education and research; and military/defense satellites.

Loading next visibility...
OTB details
Identifier
44341, 2019-036C
Orbit
LEO
Last TLE update3 hours ago
Origin
Flag of USGA-EMS (US)
ManufacturerGA-EMS
MissionOperational Commercial Tech/Misc
Bus & MotorSSTL-150, Unknown motor
Mass100 kg wet, 100 kg dry
Launch date (UTC)
2019-06-25 (6 years ago)
Launch vehicle
FALCON HEAVY
Launch site
Air Force Eastern Test Range (AFETR)
Object type
Payload
Rocket body
Debris
Shape & HBRBox + 4 Pan, 3 m
Radar Cross Section1.570 m², Large (>1 m²)

Expand to show TLE details & history

TLE from 3 hours ago
0 OTB
1 44341U 19036C   24361.52097585  .00002274  00000-0  46596-3 0  9990
2 44341  23.9956 142.0634 0011144 218.0855 141.8849 14.55310579292909
Epoch: 2024-12-26T12:30Z
Definitive object data (Epoch: 2024-12-26T12:30:12.313Z)
Latitude-0.00001°
Longitude-140.98711°
Altitude712.499 km
Speed7.499 km/s
True Right ascension09h 28m 15s
True Declination0° 00' 00"
Sunlit
Object was in full shadow at TLE epoch
Visualization TLE readout
Latitude-23.26697°
Longitude144.33923°
Altitude708.757 km
Speed7.505 km/s
Apparent Right ascension03h 46m 31s
Apparent Declination-31° 35' 41"
Sunlit
Object is in full shadow
Visualization observer readout
Local Sidereal Time14:49:02
Azimuth301.119° NW
Elevation-75.703°
Doppler factor1
Orbital elements
Apogee altitude720.939 km
Perigee altitude705.134 km
Semi-major axis7,091.173 km
Eccentricity0.0011144
Inclination23.9956°
RAAN142.0634°
Arg. of periapsis218.0855°
True anomaly141.96364°
Mean anomaly141.8849°
Eccentric anomaly141.92428°
Mean motion3.63468 °/min
BSTAR0.00046596
Orbital period99.05 mins
Loading maneuver chart data...
Loading historical data...
Loading historical data...
Loading historical data...
Loading historical data...
Loading historical data...
Loading historical data...
Loading historical data...

OTB Visibility forecast

Observer location: undefined°, undefined

Span
Click to sort rows by Start time (UTC) header in descending order
Start Az.
Max El. time (UTC)
Max El. Az.
Max El.
End time (UTC)
End Az.
4 mins2024-12-26 16:11:02.097Z204.366° SW2024-12-26 16:13:02.097Z180.691° SSW12.461°2024-12-26 16:15:02.097Z157.168° SSE
|